Location: *
(57.8420°S, 159.8600°W)
Time: 05:15:23
(UTC+00:00)

Cosmos 372 Rocket - Pass Details

Date: 18 May 2021
Orbit: 738 x 768 km, 74.1° (Epoch: 20 June)

Event Time Altitude Azimuth Distance (km) Brightness Sun altitude
Rises 06:02:48 0° 211° (SSW) 3,273 7.8 -28.0°
Reaches altitude 10° 06:05:12 10° 213° (SSW) 2,337 7.0 -28.3°
Enters shadow 06:10:16 69° 276° (W) 827 4.2 -29.0°
